FENGYUN 1C DEB

Satellite information

Favourite Embed

Satellite Type and Status

DEBRISIN ORBIT

Key statistics

Satellite FENGYUN 1C DEB at a glance.

Uptime

9718

Days in orbit

Revolutions

≈ 14.1

Per day

Orbit

SSO

Sun Synchronous Orbit

Inclination

98.5

Latest

Satellite identification and parameters

Extended collection of information and parameters for FENGYUN 1C DEB.

Object identification

Identified? True

Debris? True

Object name: FENGYUN 1C DEB

International designator: 1999-025JH

Object number (NORAD): 29935

Object ID (CCSDS): 29935

Country: PEOPLES REPUBLIC OF CHINA (PRC)

Current information (Y/N): Y

RCS size: SMALL

Orbital parameters

Period: 101.821 minutes

Inclination: 98.4613 deg

SMA: 7223.034 km

Apoapsis: 953.494 km

Periapsis: 736.305 km

RAAN: 52.145 deg

Eccentricy: 0.01503442

Argument of periapsis: 206.3635 deg

Mean anomaly: 220.7973 deg

Mean motion: 14.14240364 rev/day

Mean motion (dot): 0.00000208 rev/day2

B* drag term: 0.00011730783 1/REarth

Two-line elements (TLE)

Creation date: Dec. 16, 2025, 6:50 p.m.

Reference frame: TEME

Reference center: EARTH

Epoch: Dec. 16, 2025, 2:57 a.m. UTC

TLE line 0: 0 FENGYUN 1C DEB

TLE line 1: 1 29935U 99025JH 25350.12298951 .00000208 00000-0 11731-3 0 9991

TLE line 2: 2 29935 98.4613 52.1450 0150344 206.3635 220.7973 14.14240364975909

Live tracking on map

Real-time ground track for satellite FENGYUN 1C DEB.

In-orbit conjunctions

A list of the most updated potential collisions computed for object FENGYUN 1C DEB.

Target Orbit TCA Probability of collision Miss distance Type
COSMOS 2346 LEO 2025-03-18 05:28:20 0.0002147651 51.0 (m) PAYLOAD
FENGYUN 1C DEB SSO 2024-09-26 18:51:47 0.0001291432 550.0 (m) DEBRIS

Associated space launch

Chinese polar orbiting meteorological satellite

FENGYUN 1C DEB was lifted into orbit during the mission ‘Long March 4B | Feng Yun 1C’, on board a Long March 4B space rocket.

The launch took place on May 10, 1999, 1:33 a.m. from Launch Complex 7.

For more information about the launch, click the button.

Launch to space Long March 4B | Feng Yun 1C
Long March 4B | Feng Yun 1C

Agency: N/A

Status: Launch Successful

Launch date: May 10, 1999, 1:33 a.m. UTC

Rocket: Long March 4B

Launch pad: Launch Complex 7

Location: Taiyuan Satellite Launch Center, People's Republic of China

...

Latest news about this satellite

There are no fresh news available about this satellite. Check back as we update our databases every day.


Newsletter sign-up

Weekly statistics, charts and insights to help you stay on top of the space industry.